Temperature
21 22 21 21 20 20 20 20 19 19 19 19 19 19 19 19 19 19 19 19 19 19 19 18 18 18 18 18 18 18 18 18 18 18 18 18 18 17 17 17 18 18 18
21 22 21 21 20 20 20 20 19 19 19 19 19 19 19 19 19 19 19 19 19 18 18 18 18 18 18 18 18 18 18 18 18 18 18 18 17 17 17 17 18 18 17
22 22 21 21 20 20 20 19 19 19 19 19 19 19 19 19 19 19 19 18 18 18 18 18 18 18 18 18 18 18 18 18 18 18 17 17 17 17 17 17 17 17 17
22 21 21 21 20 20 20 19 19 19 19 19 19 19 19 19 19 18 18 18 18 18 18 18 18 18 18 18 18 18 18 18 17 17 17 17 17 17 17 17 17 17 17
21 21 21 21 20 20 20 19 19 19 19 19 19 19 19 19 18 18 18 18 18 18 18 18 18 18 18 18 18 18 18 17 17 17 17 17 17 17 17 17 17 17 17
21 21 21 21 20 20 20 19 19 19 19 19 19 19 18 18 18 18 18 18 18 18 18 18 18 18 18 18 18 18 18 17 17 17 17 17 18 17 17 17 17 17 17
21 21 21 21 20 20 20 19 19 19 19 19 19 18 18 18 18 18 18 18 18 18 18 18 18 18 18 18 18 18 18 18 17 17 17 18 17 17 17 17 17 17 17
21 21 21 21 20 20 19 19 19 19 19 19 19 19 18 18 18 18 18 18 18 18 18 18 18 18 18 18 18 18 18 18 17 17 18 18 17 17 17 17 17 17 17
21 21 21 21 20 20 19 19 19 19 19 19 19 19 18 18 18 18 18 18 18 18 18 18 18 18 18 18 18 18 18 18 18 17 18 18 18 17 17 17 17 17 17
21 21 21 20 20 20 20 19 19 19 19 19 19 19 19 18 18 18 18 18 18 18 18 18 18 18 18 19 19 18 18 18 18 18 18 18 18 17 17 17 17 17 17
22 21 20 20 20 19 19 19 19 19 19 19 19 19 19 18 18 18 18 18 18 18 18 18 18 18 18 19 19 19 19 18 18 18 18 18 18 18 17 17 17 17 17
22 22 21 20 20 19 19 19 19 19 19 19 19 19 18 18 18 18 18 18 18 18 18 18 18 18 18 18 19 19 19 19 18 18 18 18 18 18 17 17 17 17 17
22 22 21 21 20 20 19 19 19 18 19 18 18 18 18 18 18 18 18 18 18 18 18 18 18 18 18 18 18 19 19 19 18 18 18 18 18 18 17 17 17 17 17
22 22 22 21 20 20 20 19 19 19 19 19 18 18 18 18 18 18 18 18 18 18 18 18 18 18 18 18 18 18 19 18 18 18 18 18 18 18 18 17 17 17 17
22 22 22 21 21 20 20 20 19 19 19 19 19 19 18 18 18 18 18 18 18 18 18 18 18 18 18 18 18 18 18 18 18 18 18 18 18 18 18 17 17 17 17
22 22 21 21 20 20 20 20 20 19 19 19 19 19 19 18 18 18 18 18 18 18 18 18 18 18 18 18 18 18 18 18 18 18 18 18 18 18 18 17 17 17 17
22 21 21 20 20 20 20 20 20 19 19 19 19 19 19 19 18 18 18 18 18 18 18 18 18 18 18 18 18 18 18 18 18 18 17 18 18 18 17 17 17 17 17
21 21 21 20 20 20 20 20 19 20 20 19 19 19 19 19 19 18 18 18 18 18 18 18 18 18 18 18 18 18 18 18 18 18 18 17 17 17 17 17 17 17 17
21 21 21 20 20 20 20 19 19 19 19 19 19 19 19 19 19 19 18 18 18 18 18 18 18 18 18 18 18 18 18 18 18 18 18 18 17 17 17 17 17 17 17
21 21 20 20 20 19 19 19 19 19 19 19 19 19 19 19 19 19 18 18 18 18 18 18 18 18 18 18 18 18 18 18 18 18 18 18 18 17 17 17 17 17 17
21 21 20 20 20 19 19 19 19 19 19 19 19 19 19 19 19 19 18 18 18 18 18 18 18 18 18 18 18 18 18 18 18 18 18 18 18 18 18 17 17 17 17
21 21 20 20 20 19 19 19 19 19 19 19 19 19 19 19 18 18 18 18 19 18 18 18 18 18 18 18 18 18 18 19 19 19 19 18 18 18 18 17 17 17 17
21 20 20 20 19 19 19 19 19 19 19 18 18 19 19 19 18 18 18 18 18 18 18 18 18 18 18 18 18 18 18 19 19 19 19 19 19 18 18 18 18 18 17
21 20 20 20 19 19 19 19 18 18 19 19 19 19 19 18 18 18 18 18 18 18 18 18 18 18 18 18 18 18 19 19 19 19 19 19 19 19 18 18 18 18 18
21 21 20 20 19 19 19 18 18 18 18 19 18 18 18 18 18 18 18 18 18 18 18 18 18 18 18 18 18 18 18 18 19 19 19 19 19 19 19 19 18 18 18
21 21 20 19 19 19 18 18 18 18 18 18 18 18 18 18 18 18 18 18 18 18 18 18 18 18 18 18 18 18 18 18 18 19 19 19 19 19 19 19 19 18 18
Wind_Speed
19 18 19 18 17 17 17 16 16 16 16 16 16 16 16 16 17 17 17 17 17 17 17 16 17 17 17 17 17 18 18 18 19 20 20 19 18 17 17 18 20 18 19
22 20 20 18 18 17 17 16 16 15 15 15 15 15 15 15 15 15 16 16 16 16 16 16 16 17 17 17 16 16 16 17 18 20 20 19 17 16 17 18 19 17 18
22 20 19 19 18 17 17 16 16 15 15 15 14 14 14 14 14 14 15 15 15 16 16 16 16 16 16 15 15 14 14 14 15 18 19 17 16 18 20 20 20 18 18
22 20 19 19 18 17 17 16 15 15 14 14 14 14 13 14 14 14 14 15 15 15 15 16 16 15 15 14 12 11 10 10 11 13 13 16 16 17 18 19 18 17 17
20 20 20 20 19 17 17 16 15 14 14 14 13 13 13 13 13 14 14 14 15 15 15 15 15 14 13 12 10 8 6 5 6 10 16 18 16 16 17 17 17 16 16
21 21 20 20 19 17 16 15 15 14 14 13 13 13 13 13 14 14 14 14 14 15 15 14 14 14 12 10 8 5 3 1 3 12 17 18 15 15 16 16 16 15 15
21 20 20 19 18 17 16 15 14 14 13 13 13 13 13 13 13 14 14 14 14 14 14 14 13 12 11 8 5 2 2 3 5 13 17 17 15 15 15 15 15 14 14
21 20 19 19 18 17 16 15 14 14 13 13 13 13 12 12 13 13 13 14 14 13 13 13 12 11 9 6 3 1 3 5 9 15 18 16 16 15 15 14 14 13 13
21 19 17 17 17 16 15 15 14 14 13 12 12 12 12 12 13 13 13 13 13 13 12 12 11 10 8 5 2 2 5 6 4 13 17 15 15 14 14 13 13 13 13
19 18 16 17 16 15 15 15 14 14 13 13 12 13 13 13 13 13 13 12 12 12 11 11 10 9 7 5 2 3 6 7 5 14 15 15 15 14 13 12 12 12 12
16 16 16 16 15 16 16 15 15 14 13 13 12 12 13 12 13 12 13 13 12 11 10 10 9 9 7 5 5 5 6 3 9 14 14 17 15 13 12 11 11 11 11
14 15 14 15 14 14 14 15 13 12 13 12 12 13 11 10 12 12 15 13 11 10 10 9 9 9 8 7 7 7 6 4 9 13 14 18 15 13 12 11 11 11 10
13 13 14 13 11 11 10 12 10 10 11 10 12 12 10 10 11 13 11 11 10 11 9 9 9 9 8 6 6 6 4 3 9 13 15 17 15 13 12 11 10 10 10
12 12 13 13 10 7 9 8 7 7 8 7 11 11 9 5 6 9 8 10 10 9 8 8 7 7 5 4 3 2 1 5 11 13 14 16 15 13 12 11 10 10 10
10 10 11 11 9 6 5 4 6 6 7 8 10 10 9 5 4 6 5 6 8 8 8 5 4 4 3 3 2 2 2 5 10 12 13 16 15 14 12 11 10 10 10
12 10 10 11 10 7 5 2 2 5 6 7 8 10 9 7 5 5 4 4 5 7 7 5 4 4 3 2 2 2 2 4 8 12 13 14 14 14 13 12 11 11 10
12 10 10 11 10 9 8 6 4 5 7 6 7 10 9 7 8 6 4 4 4 6 6 4 4 4 3 4 3 2 2 3 6 9 14 14 13 13 13 13 12 12 11
13 11 11 12 12 10 8 7 5 5 5 5 8 10 9 8 9 6 4 5 6 6 4 3 3 3 3 3 3 3 2 2 4 7 11 13 14 13 14 15 14 13 12
12 12 11 9 11 11 9 7 5 3 3 5 7 9 10 10 9 6 3 3 6 4 3 5 4 3 2 2 3 3 3 4 4 6 7 11 13 15 15 16 17 15 14
12 11 11 10 10 10 8 6 5 4 4 4 5 7 11 10 10 8 4 5 5 4 4 2 3 2 1 2 3 3 3 3 4 4 6 7 11 14 16 16 16 15 17
13 12 12 11 10 9 8 8 8 7 5 5 5 8 11 11 11 8 5 6 4 4 5 5 3 3 3 3 2 2 2 4 5 4 4 4 6 10 13 17 16 15 15
12 12 12 11 11 11 8 7 6 6 6 6 5 6 11 11 10 10 5 6 6 4 4 4 4 2 3 3 2 2 1 2 2 5 4 5 6 6 8 14 15 16 15
13 13 12 11 10 11 9 7 5 4 4 5 6 6 7 10 10 8 7 6 6 6 6 5 5 5 4 3 3 2 2 2 2 2 5 5 5 4 5 7 12 15 15
12 12 10 10 10 10 9 9 9 8 8 7 6 6 7 8 9 9 8 7 6 5 6 7 7 5 5 4 3 3 2 1 1 1 2 3 5 5 5 6 8 12 14
10 10 10 10 10 9 9 9 9 8 7 5 6 7 7 7 8 9 8 7 7 6 6 7 5 5 5 5 4 3 3 2 3 2 2 2 3 4 5 5 4 8 14
9 9 10 9 9 9 9 9 10 9 8 8 8 8 7 7 7 8 8 7 7 7 6 6 6 7 5 5 3 3 2 3 3 3 3 3 4 4 5 5 5 5 11
Wind_Direction
122 125 125 124 123 123 121 117 113 109 106 102 99 96 94 94 94 93 94 95 96 96 94 92 91 90 88 88 89 90 92 94 95 96 96 95 95 96 99 103 99 95 97
124 126 125 125 126 126 123 120 117 114 111 108 105 102 100 99 99 98 98 98 98 97 96 94 95 94 93 93 94 96 98 102 104 105 102 96 92 92 95 97 96 102 101
123 127 127 125 127 126 125 123 121 119 115 113 110 108 106 104 103 103 102 101 101 100 99 97 97 97 97 97 98 101 105 112 118 121 113 102 94 92 94 97 101 103 102
127 132 129 128 127 127 125 124 123 122 120 117 115 111 110 107 106 105 105 105 105 104 102 101 100 100 99 100 103 107 112 121 131 131 111 103 99 97 99 102 104 104 105
126 125 128 130 129 128 127 127 126 125 123 121 118 115 113 111 108 107 107 107 107 106 105 103 103 103 103 105 108 112 113 119 131 111 96 94 97 103 104 105 106 106 107
126 127 131 131 130 130 130 129 129 127 125 123 121 117 116 114 112 112 110 109 109 109 107 106 105 105 106 108 111 109 103 88 109 106 106 104 105 108 108 108 108 107 108
129 129 134 134 133 133 133 132 131 130 128 125 123 121 119 117 117 116 114 112 111 112 110 109 109 109 111 114 113 98 5 331 102 100 100 102 108 111 109 109 110 109 111
130 131 134 137 137 138 138 136 135 134 132 130 129 127 125 122 121 119 117 116 115 115 115 114 114 114 116 118 116 15 337 339 98 106 103 107 115 114 112 111 111 112 113
130 132 141 143 142 143 144 143 141 139 138 136 135 133 131 129 127 125 122 121 121 120 120 120 120 120 123 130 150 304 323 336 88 116 112 115 121 120 118 117 116 117 118
134 139 146 149 149 151 149 147 146 145 144 144 144 143 141 139 137 136 132 129 128 128 128 129 129 131 136 152 202 281 312 317 134 111 112 123 127 126 125 124 124 123 124
138 143 153 151 156 159 155 151 152 151 152 153 154 156 157 158 152 154 136 137 138 139 139 140 144 148 156 179 219 262 289 271 107 108 116 130 133 132 132 132 132 130 131
144 153 155 153 159 164 155 151 161 163 162 174 165 170 185 172 156 144 140 145 149 151 152 157 163 169 184 189 208 235 252 203 124 113 127 138 139 139 139 139 140 140 141
155 158 152 150 158 162 144 159 169 164 165 183 171 177 184 161 147 138 147 152 162 168 174 166 180 199 200 185 187 210 228 100 106 116 137 144 145 146 147 147 147 149 148
166 162 153 150 157 155 149 162 159 157 167 170 170 182 170 167 154 149 156 165 173 181 179 178 195 206 181 158 178 208 118 105 114 124 145 150 150 154 156 157 158 159 159
170 166 150 146 146 148 134 157 162 155 166 165 163 181 174 165 159 147 154 167 180 172 175 187 186 152 147 160 187 158 97 98 118 130 145 156 157 161 166 169 170 171 171
173 168 151 147 143 144 143 172 156 159 158 156 165 172 184 165 150 142 155 175 182 170 171 172 169 152 179 171 187 153 125 119 120 137 151 162 167 170 176 179 181 183 182
173 167 155 154 151 157 165 187 183 181 167 167 163 164 180 171 152 157 159 180 184 161 157 166 170 174 187 182 182 163 140 130 139 147 154 162 171 180 184 187 189 190 191
172 167 165 174 165 168 175 187 194 194 177 173 162 164 176 173 162 174 172 183 171 159 166 161 194 198 195 180 169 179 158 154 166 170 166 172 175 181 189 195 195 196 197
169 165 168 175 167 173 179 185 205 191 177 174 170 168 174 180 176 189 192 166 171 166 179 191 186 193 182 185 191 180 193 195 184 197 183 182 180 175 181 194 198 199 200
169 167 170 177 173 171 174 180 206 201 184 188 179 170 170 183 186 196 188 177 191 174 179 178 157 167 172 202 239 192 204 201 198 197 196 191 181 182 183 182 191 203 207
172 172 175 182 177 174 180 188 197 197 193 199 201 178 177 189 188 200 198 171 194 187 181 174 172 185 212 205 207 218 225 223 209 195 197 189 191 189 177 173 187 194 201
173 175 178 184 183 185 188 189 195 190 190 198 209 187 184 192 189 198 200 183 187 188 187 184 167 185 226 206 198 200 249 272 240 210 187 198 202 189 183 185 191 189 192
178 179 184 184 183 188 185 185 196 184 194 201 200 193 194 193 196 205 185 199 188 192 188 191 183 195 221 223 214 188 192 213 220 239 214 207 188 189 195 191 191 191 196
179 179 178 179 181 185 186 192 192 195 200 203 193 193 194 198 202 201 193 195 200 205 182 193 194 201 206 229 231 226 223 158 172 220 246 211 194 198 208 210 204 194 199
180 178 177 177 182 185 193 199 199 205 202 199 194 194 197 203 209 204 198 194 199 208 201 205 184 194 201 220 221 210 221 203 215 213 231 228 220 210 203 208 209 194 197
178 177 174 177 184 187 196 201 203 205 201 208 202 194 198 201 210 213 203 197 201 209 204 198 192 201 215 231 236 228 207 203 215 224 224 220 222 227 207 201 201 192 194
Height
1506 1509 1511 1514 1516 1518 1520 1522 1524 1525 1527 1528 1529 1531 1532 1533 1534 1536 1537 1538 1539 1541 1542 1543 1544 1545 1546 1547 1548 1549 1550 1551 1552 1553 1554 1555 1556 1558 1559 1560 1561 1562 1563
1505 1509 1512 1515 1517 1520 1522 1524 1526 1527 1529 1530 1532 1533 1534 1536 1537 1538 1539 1541 1542 1543 1544 1545 1546 1547 1548 1549 1550 1551 1552 1553 1554 1555 1556 1558 1559 1560 1561 1562 1564 1565 1566
1505 1510 1513 1516 1519 1521 1524 1526 1528 1529 1531 1533 1534 1535 1537 1538 1539 1541 1542 1543 1544 1545 1546 1547 1548 1549 1550 1551 1552 1554 1555 1556 1557 1558 1559 1560 1562 1563 1564 1565 1566 1567 1569
1507 1511 1514 1517 1520 1523 1525 1527 1529 1531 1533 1535 1536 1538 1539 1540 1542 1543 1544 1545 1546 1547 1549 1550 1551 1552 1553 1554 1555 1556 1558 1559 1560 1561 1562 1563 1564 1565 1566 1568 1569 1570 1571
1510 1513 1516 1519 1522 1524 1527 1529 1531 1533 1535 1537 1538 1540 1541 1542 1544 1545 1546 1547 1548 1550 1551 1552 1553 1554 1555 1556 1558 1559 1560 1561 1563 1564 1565 1566 1567 1568 1569 1570 1571 1572 1574
1511 1514 1517 1520 1523 1526 1528 1531 1533 1535 1537 1538 1540 1541 1543 1544 1546 1547 1548 1549 1550 1552 1553 1554 1555 1556 1557 1559 1560 1562 1563 1564 1566 1567 1568 1568 1569 1570 1571 1572 1573 1575 1576
1513 1515 1519 1521 1524 1527 1529 1532 1534 1536 1538 1540 1542 1543 1545 1546 1547 1549 1550 1551 1552 1554 1555 1556 1557 1558 1560 1561 1562 1564 1565 1566 1568 1569 1569 1570 1571 1572 1573 1574 1575 1577 1578
1514 1516 1520 1523 1526 1528 1531 1533 1535 1538 1540 1541 1543 1545 1546 1548 1549 1550 1552 1553 1554 1556 1557 1558 1559 1560 1562 1563 1565 1566 1567 1568 1570 1571 1571 1572 1573 1574 1575 1576 1577 1578 1580
1516 1518 1521 1524 1527 1529 1532 1534 1536 1539 1541 1543 1544 1546 1548 1549 1551 1552 1553 1555 1556 1557 1559 1560 1561 1562 1563 1565 1566 1568 1569 1570 1572 1572 1573 1574 1575 1576 1577 1578 1579 1580 1581
1517 1519 1522 1525 1527 1530 1532 1535 1537 1540 1542 1544 1545 1547 1549 1550 1552 1554 1555 1556 1558 1559 1560 1561 1562 1564 1565 1567 1568 1570 1571 1572 1573 1574 1574 1575 1576 1577 1578 1579 1580 1581 1582
1519 1521 1523 1526 1528 1531 1533 1535 1538 1540 1542 1544 1546 1548 1550 1551 1553 1555 1556 1558 1559 1560 1562 1563 1564 1565 1567 1569 1570 1571 1572 1573 1574 1574 1575 1576 1577 1578 1579 1580 1581 1582 1583
1519 1522 1525 1527 1529 1533 1535 1536 1538 1541 1543 1545 1547 1549 1551 1553 1554 1556 1557 1559 1560 1562 1563 1564 1565 1566 1568 1570 1571 1572 1573 1574 1575 1575 1576 1577 1578 1578 1579 1581 1582 1583 1584
1518 1522 1525 1527 1530 1533 1535 1537 1539 1542 1544 1546 1548 1550 1552 1554 1556 1557 1558 1559 1561 1562 1564 1565 1566 1568 1569 1571 1573 1573 1574 1575 1575 1575 1576 1577 1578 1579 1580 1581 1582 1583 1584
1518 1521 1524 1526 1529 1533 1535 1538 1540 1542 1544 1546 1548 1550 1552 1554 1556 1557 1558 1560 1561 1562 1564 1566 1567 1569 1571 1573 1573 1574 1575 1576 1575 1576 1577 1578 1578 1579 1580 1581 1582 1583 1584
1517 1520 1523 1525 1528 1532 1535 1537 1540 1542 1544 1546 1548 1550 1553 1554 1556 1557 1559 1560 1562 1563 1565 1566 1567 1569 1571 1573 1574 1575 1576 1576 1576 1576 1577 1578 1578 1579 1580 1581 1582 1583 1584
1515 1519 1522 1524 1527 1530 1533 1536 1539 1541 1544 1546 1547 1549 1552 1554 1555 1557 1559 1560 1562 1563 1565 1567 1568 1569 1571 1572 1573 1575 1576 1576 1576 1576 1576 1577 1578 1579 1580 1581 1582 1583 1583
1514 1517 1520 1522 1525 1528 1531 1534 1538 1540 1542 1544 1546 1548 1550 1553 1554 1556 1558 1559 1561 1563 1565 1566 1568 1569 1571 1572 1573 1574 1575 1575 1576 1576 1576 1577 1577 1578 1579 1580 1581 1582 1583
1511 1515 1517 1521 1523 1525 1529 1532 1535 1539 1541 1543 1545 1546 1548 1551 1553 1555 1557 1559 1560 1562 1564 1565 1567 1568 1570 1571 1572 1573 1574 1575 1575 1576 1576 1576 1576 1577 1578 1579 1580 1581 1582
1509 1512 1515 1518 1521 1523 1527 1530 1533 1536 1539 1541 1543 1544 1546 1549 1551 1553 1555 1557 1559 1561 1562 1564 1566 1567 1569 1570 1571 1572 1573 1573 1574 1575 1575 1575 1576 1576 1577 1578 1579 1580 1580
1507 1510 1512 1515 1518 1521 1524 1527 1530 1533 1536 1538 1540 1542 1544 1546 1549 1551 1553 1555 1558 1559 1561 1562 1564 1566 1567 1568 1570 1570 1571 1572 1572 1573 1574 1574 1575 1575 1575 1576 1577 1578 1579
1504 1507 1509 1512 1515 1518 1521 1523 1526 1529 1532 1535 1538 1540 1542 1544 1546 1548 1551 1553 1555 1557 1559 1561 1562 1564 1565 1567 1568 1569 1570 1570 1571 1571 1572 1573 1574 1574 1575 1575 1575 1576 1577
1502 1504 1507 1509 1512 1514 1517 1520 1523 1527 1529 1531 1534 1537 1539 1541 1544 1546 1548 1550 1552 1554 1556 1558 1560 1561 1563 1565 1567 1567 1568 1569 1569 1570 1570 1571 1572 1573 1573 1573 1574 1574 1575
1499 1501 1504 1506 1509 1512 1514 1517 1521 1524 1526 1529 1531 1533 1535 1538 1541 1543 1545 1547 1550 1552 1553 1555 1557 1559 1561 1563 1565 1566 1566 1566 1567 1568 1568 1569 1570 1571 1572 1572 1573 1573 1573
1497 1499 1501 1503 1506 1508 1511 1514 1516 1519 1521 1525 1527 1529 1532 1534 1537 1540 1542 1544 1546 1549 1551 1553 1554 1556 1559 1560 1562 1563 1564 1564 1565 1566 1567 1567 1568 1569 1569 1570 1571 1570 1571
1495 1497 1499 1501 1503 1505 1508 1510 1513 1516 1518 1521 1524 1527 1529 1531 1534 1536 1538 1541 1543 1545 1547 1550 1552 1553 1555 1557 1559 1560 1562 1563 1564 1565 1564 1565 1566 1566 1567 1567 1568 1568 1569
1493 1495 1497 1498 1500 1502 1504 1506 1509 1512 1515 1517 1519 1522 1525 1527 1530 1532 1534 1537 1539 1542 1544 1546 1548 1550 1552 1554 1556 1557 1559 1560 1561 1562 1563 1563 1563 1564 1564 1565 1565 1566 1567